Weather in Semporna

Malaysia     4°28′39″N   118°36′34″E
temp.,
°C
wind,
m/s
gust,
m/s
humid.,
%
clouds,
%
prec.,
mm/h
press.,
hPa
HPBL,
m
16 april, fri
fri1623:00+24nw119483 5.3 101129
02:00+24nw119360 5.4 100986
05:00+23wsw119496 0.0 100942
08:00+26wsw118715 0.0 1011175
11:00+29ese217592 0.8 1011755
14:00+29e117530 2.6 1008811
17:00+28sse12848 1.6 1007152
20:00+25ene2290100 7.3 1011123
17 april, sat
sat1723:00+24n119198 0.4 1012193
02:00+23wnw1195100 1.1 100962
05:00+23nw1196100 1.9 101050
08:00+25wsw119198 2.0 1012169
11:00+31sse1258100 0.0 10111286
14:00+29s1276100 1.4 1009776
17:00+27s228689 2.4 1008122
20:00+25ne119144 3.9 1011116
18 april, sun
sun1823:00+24s0193100 2.4 101237
02:00+23wsw0094100 2.4 101033
05:00+23wsw1195100 0.0 101039
08:00+26wsw1190100 0.0 1011125
11:00+31s126181 0.0 10101052
14:00+28ese2283100 0.6 1008368
17:00+28s228230 1.8 1006119
20:00+25n119238 3.6 100925
19 april, mon
mon1923:00+24sw1192100 1.3 101040
02:00+24wsw1193100 1.4 100838
05:00+23sw2294100 0.0 100856
08:00+25sw1692100 0.0 1010318
11:00+30ssw3565100 0.0 10101064
14:00+30s3563100 0.1 10071131
17:00+28s2374100 0.1 1007465
20:00+25ssw118999 0.1 100955
20 april, tue
tue2023:00+24wsw1191100 0.0 101052
02:00+24w1192100 0.0 100837
05:00+24wnw1193100 0.0 100843
08:00+28nw11786 0.0 1010325
11:00+33n135498 0.0 10091530
14:00+31se225989 0.1 10071206
17:00+29sse236926 0.1 1007495
20:00+26ene1185100 0.1 1009137